Oconto, WI

5:14 PM CDT on August 29, 2016 (GMT -0500)
Oconto Municipal

Weather History for KOCQ - April, 2013

Change the Weather History Date:

Monday, April 8, 2013

  Actual Average Record
Temperature  
Mean Temperature 32 °F -  
Max Temperature 36 °F 49 °F 57 °F (2014)
Min Temperature 29 °F 27 °F 21 °F (2016)
Degree Days  
Heating Degree Days 32    
Moisture  
Dew Point 33 °F    
Average Humidity 93    
Maximum Humidity 98    
Minimum Humidity 85    
Precipitation  
Precipitation 0.04 in - - ()
Sea Level Pressure  
Sea Level Pressure 29.88 in    
Wind  
Wind Speed 4 mph (NE)    
Max Wind Speed 10 mph    
Max Gust Speed -    
Visibility 9 miles    
Events      
Averages and records for this station are not official NWS values.
T = Trace of Precipitation, MM = Missing Value Source: NWS Daily Summary

Daily Weather History Graph

Daily Weather History Graph

Search for Another Location

Airport or City:

Trip Planner

Search our weather history database for the weather conditions in past years. The results will help you decide how hot, cold, wet, or windy it might be!

Date:

Astronomy

Apr. 08, 2013 Rise Set
Actual Time 6:19 AM CDT 7:28 PM CDT
Civil Twilight 5:49 AM CDT 7:58 PM CDT
Nautical Twilight 5:13 AM CDT 8:34 PM CDT
Astronomical Twilight 4:35 AM CDT 9:12 PM CDT
Moon 5:12 AM CDT (4/8) 6:00 PM CDT (4/8)
Length of Visible Light 14h 09m
Length of Day
13h 09m
Waning Crescent, 3% of the Moon is Illuminated
Apr 8
Waning Crescent
Apr 10
New
Apr 18
First Quarter
Apr 25
Full
May 2
Last Quarter

Hourly Weather History & Observations

Time (CDT) Temp. Windchill Dew Point Humidity Pressure Visibility Wind Dir Wind Speed Gust Speed Precip Events Conditions
12:15 AM 33.1 °F 28.7 °F 30.2 °F 89% 29.93 in 10.0 mi SSE 4.6 mph - N/A   Clear
12:35 AM 32.4 °F 29.1 °F 29.8 °F 90% 29.94 in 10.0 mi South 3.5 mph - N/A   Clear
12:55 AM 32.0 °F 27.5 °F 29.5 °F 90% 29.94 in 10.0 mi SSE 4.6 mph - N/A   Clear
1:15 AM 32.0 °F 27.5 °F 29.3 °F 90% 29.93 in 10.0 mi SSE 4.6 mph - N/A   Clear
1:35 AM 33.1 °F 27.7 °F 29.8 °F 88% 29.92 in 10.0 mi SSE 5.8 mph - N/A   Clear
1:55 AM 32.0 °F 28.7 °F 29.3 °F 90% 29.91 in 10.0 mi East 3.5 mph - N/A   Clear
2:15 AM 31.6 °F - 29.1 °F 90% 29.90 in 10.0 mi Calm Calm - N/A   Clear
2:35 AM 30.2 °F - 28.9 °F 95% 29.90 in 10.0 mi Calm Calm - N/A   Clear
2:55 AM 30.4 °F - 28.8 °F 94% 29.90 in 10.0 mi Calm Calm - N/A   Clear
3:15 AM 29.8 °F - 28.2 °F 94% 29.90 in 10.0 mi Calm Calm - N/A   Clear
3:35 AM 30.2 °F - 28.9 °F 95% 29.89 in 10.0 mi Calm Calm - N/A   Clear
3:55 AM 30.9 °F - 29.1 °F 93% 29.89 in 10.0 mi Calm Calm - N/A   Scattered Clouds
4:15 AM 30.0 °F - 28.8 °F 95% 29.89 in 10.0 mi Calm Calm - N/A   Scattered Clouds
4:35 AM 31.5 °F 26.8 °F 29.8 °F 94% 29.88 in 10.0 mi NE 4.6 mph - N/A   Scattered Clouds
4:55 AM 32.2 °F - 30.6 °F 94% 29.89 in 10.0 mi Calm Calm - N/A   Mostly Cloudy
5:15 AM 32.2 °F 26.7 °F 30.7 °F 94% 29.86 in 10.0 mi ENE 5.8 mph - N/A   Overcast
5:35 AM 33.4 °F 28.1 °F 31.1 °F 91% 29.86 in 10.0 mi East 5.8 mph - N/A   Overcast
5:55 AM 34.2 °F 30.0 °F 31.5 °F 90% 29.86 in 10.0 mi East 4.6 mph - N/A   Overcast
6:15 AM 34.7 °F 29.6 °F 31.8 °F 89% 29.85 in 10.0 mi East 5.8 mph - N/A   Overcast
6:35 AM 34.7 °F 29.6 °F 32.0 °F 90% 29.85 in 10.0 mi ESE 5.8 mph - N/A   Overcast
6:55 AM 34.9 °F 30.8 °F 32.0 °F 89% 29.85 in 10.0 mi East 4.6 mph - N/A   Overcast
7:15 AM 34.9 °F 30.8 °F 32.0 °F 89% 29.85 in 10.0 mi East 4.6 mph - N/A   Overcast
7:35 AM 35.1 °F 31.0 °F 32.0 °F 89% 29.84 in 10.0 mi East 4.6 mph - N/A   Overcast
7:55 AM 34.7 °F 30.6 °F 32.0 °F 90% 29.83 in 10.0 mi ENE 4.6 mph - N/A   Mostly Cloudy
8:15 AM 35.1 °F 30.1 °F 32.0 °F 89% 29.83 in 10.0 mi ENE 5.8 mph - N/A   Mostly Cloudy
8:35 AM 35.6 °F 29.2 °F 32.2 °F 87% 29.81 in 10.0 mi ENE 8.1 mph - N/A   Overcast
8:55 AM 35.2 °F 28.8 °F 32.0 °F 88% 29.81 in 10.0 mi ENE 8.1 mph - N/A   Overcast
9:15 AM 35.8 °F 30.1 °F 32.0 °F 86% 29.81 in 10.0 mi ENE 6.9 mph - N/A   Overcast
9:35 AM 36.1 °F 29.9 °F 32.0 °F 85% 29.81 in 10.0 mi NE 8.1 mph - N/A   Overcast
9:55 AM 36.3 °F 31.6 °F 32.2 °F 85% 29.82 in 10.0 mi ENE 5.8 mph - N/A   Overcast
10:15 AM 35.8 °F 31.9 °F 32.4 °F 87% 29.82 in 7.0 mi NE 4.6 mph - N/A   Overcast
10:35 AM 35.2 °F 29.5 °F 33.1 °F 92% 29.82 in 10.0 mi NE 6.9 mph - 0.02 in   Overcast
10:55 AM 35.6 °F 29.9 °F 33.4 °F 92% 29.81 in 10.0 mi NE 6.9 mph - 0.02 in   Overcast
11:15 AM 35.6 °F 29.9 °F 33.6 °F 92% 29.81 in 10.0 mi NE 6.9 mph - N/A   Overcast
11:35 AM 35.6 °F 28.0 °F 33.4 °F 92% 29.79 in 10.0 mi NE 10.4 mph - N/A   Overcast
11:55 AM 35.6 °F 29.9 °F 33.8 °F 93% 29.79 in 10.0 mi ENE 6.9 mph - N/A   Overcast
12:15 PM 35.6 °F 29.2 °F 33.6 °F 92% 29.79 in 10.0 mi NE 8.1 mph - N/A   Overcast
12:35 PM 35.8 °F 28.8 °F 33.8 °F 92% 29.78 in 10.0 mi NE 9.2 mph - N/A   Overcast
12:55 PM 35.6 °F 28.0 °F 33.8 °F 93% 29.78 in 10.0 mi NE 10.4 mph - N/A   Overcast
1:15 PM 36.0 °F 32.1 °F 33.8 °F 92% 29.79 in 10.0 mi NE 4.6 mph - N/A   Overcast
1:35 PM 36.1 °F 30.6 °F 34.0 °F 92% 29.80 in 10.0 mi NE 6.9 mph - 0.01 in   Overcast
1:55 PM 35.8 °F 30.9 °F 34.0 °F 93% 29.80 in 7.0 mi NE 5.8 mph - 0.01 in   Overcast
2:15 PM 36.3 °F 30.8 °F 34.2 °F 92% 29.81 in 7.0 mi North 6.9 mph - 0.01 in   Overcast
2:35 PM 36.1 °F 29.9 °F 34.3 °F 93% 29.81 in 7.0 mi NNE 8.1 mph - 0.01 in   Overcast
2:55 PM 35.6 °F 30.7 °F 33.8 °F 93% 29.82 in 10.0 mi NNE 5.8 mph - 0.01 in   Overcast
3:15 PM 36.1 °F 30.6 °F 34.3 °F 93% 29.82 in 10.0 mi NE 6.9 mph - N/A   Overcast
3:35 PM 36.3 °F 30.8 °F 34.9 °F 95% 29.82 in 7.0 mi NE 6.9 mph - N/A   Overcast
3:55 PM 36.0 °F 30.3 °F 34.5 °F 94% 29.82 in 7.0 mi NNE 6.9 mph - N/A   Overcast
4:15 PM 36.1 °F 29.3 °F 34.7 °F 94% 29.82 in 10.0 mi NNE 9.2 mph - N/A   Overcast
4:35 PM 36.5 °F 31.8 °F 34.7 °F 93% 29.84 in 10.0 mi NNE 5.8 mph - N/A   Overcast
4:55 PM 36.0 °F 31.1 °F 34.3 °F 94% 29.84 in 10.0 mi NNE 5.8 mph - N/A   Overcast
5:15 PM 35.8 °F 30.1 °F 34.5 °F 95% 29.86 in 5.0 mi North 6.9 mph - N/A   Overcast
5:35 PM 35.6 °F 30.7 °F 34.3 °F 95% 29.88 in 5.0 mi North 5.8 mph - N/A   Overcast
5:55 PM 35.6 °F 31.7 °F 34.7 °F 97% 29.88 in 5.0 mi North 4.6 mph - N/A   Overcast
6:15 PM 35.6 °F 29.9 °F 34.5 °F 96% 29.89 in 7.0 mi NNE 6.9 mph - N/A   Overcast
6:35 PM 35.6 °F 32.8 °F 34.7 °F 97% 29.89 in 7.0 mi North 3.5 mph - N/A   Overcast
6:55 PM 35.6 °F 32.8 °F 34.7 °F 97% 29.91 in 7.0 mi NNW 3.5 mph - N/A   Overcast
7:15 PM 35.6 °F 32.8 °F 34.7 °F 97% 29.92 in 7.0 mi North 3.5 mph - N/A   Overcast
7:35 PM 35.6 °F 32.8 °F 34.7 °F 97% 29.94 in 10.0 mi North 3.5 mph - N/A   Overcast
7:55 PM 35.6 °F - 34.7 °F 97% 29.96 in 10.0 mi Calm Calm - N/A   Overcast
8:15 PM 35.6 °F - 34.7 °F 97% 29.96 in 7.0 mi Calm Calm - N/A   Overcast
8:35 PM 35.4 °F 32.6 °F 34.7 °F 97% 29.96 in 7.0 mi North 3.5 mph - N/A   Overcast
8:55 PM 35.2 °F 32.4 °F 34.7 °F 98% 29.97 in 10.0 mi North 3.5 mph - N/A   Overcast
9:15 PM 35.6 °F - 34.7 °F 97% 29.99 in 10.0 mi Calm Calm - N/A   Overcast
9:35 PM 35.6 °F - 34.7 °F 97% 30.01 in 7.0 mi Calm Calm - N/A   Overcast
9:55 PM 35.6 °F - 34.7 °F 97% 30.02 in 10.0 mi Calm Calm - N/A   Overcast
10:15 PM 35.6 °F - 34.7 °F 97% 30.02 in 7.0 mi Calm Calm - N/A   Overcast
10:35 PM 35.2 °F - 34.7 °F 98% 30.02 in 7.0 mi Calm Calm - N/A   Overcast
10:55 PM 35.2 °F 32.4 °F 34.7 °F 98% 30.02 in 7.0 mi North 3.5 mph - N/A   Overcast
11:15 PM 35.2 °F 30.3 °F 34.7 °F 98% 30.01 in 7.0 mi North 5.8 mph - N/A   Overcast
11:35 PM 35.1 °F 32.2 °F 34.2 °F 97% 30.01 in 7.0 mi North 3.5 mph - N/A   Overcast
11:55 PM 34.7 °F 31.8 °F 33.8 °F 97% 30.01 in 7.0 mi North 3.5 mph - N/A   Mostly Cloudy